Live Position
Loading 3D Globe...
About ANTELSAT
Group: 3 satellites
Description loading...
Upcoming Passes
Passes for default location (London). Set your location on the main map for personalized predictions.
Altitude History
Loading altitude history...
No altitude history available
Two-Line Element Set
1 40034U 14033AA 26106.37892079 .00002468 00000-0 25477-3 0 9990
2 40034 97.7701 263.1098 0042310 260.6392 99.0041 14.90456214636601
Epoch: Apr 16, 2026 •
Age: 15 hours
Current Status
Altitude 623.2 km
Velocity 7.54 km/s
Sub-Earth Point 36.04°N,
56.54°E
Launch Date Jun 19, 2014
Age 11.8 years
Type other
Technical Details
Classification Payload
Mass 2.00 kg
Dry Mass 2.00 kg
Total Mass 2.00 kg
Length 0.20 m
Diameter 0.10 m
Span 0.20 m
Shape Box+boom
Manufacturer FING
Bus Type Cubesat 2U
Phase Status In Orbit
Owner/State FING/ANTEL/UY
Most Searched
Loading...